Location: Beuerbach
(48.1459°N, 10.9174°E)
Time: 21:39:40
(UTC+00:00)

SL-16 R/B - Pass Details

Date: 17 August 2024
Orbit: 842 x 845 km, 71.0° (Epoch: 07 September)

Event Time Altitude Azimuth Distance (km) Brightness Sun altitude
Exits shadow 21:19:32 37° 93° (E) 1,287 2.8 -23.2°
Drops below altitude 10° 21:24:10 10° 41° (NE) 2,474 4.8 -23.6°
Sets 21:26:46 0° 34° (NNE) 3,414 5.7 -23.8°
